[[{"header":{"parameterUnit":"m.s-1","parameterCategory":1,"la1":30.2991,"la2":30.254,"lo1":-89.0895,"lo2":-89.0444,"dy":0.0017,"dx":0.0017,"nx":28,"ny":28,"refTime":"2024-12-23T03:00:00:Z","depth":0,"parameterNumber":2,"parameterNumberName":"U-component_of_WINDS"},"data":[0,0,0,0,0,0,0,0,0,0,0,0,0,0,0,0,0,0,0,0,0,0,0,0,0,0,0,0,0,0,0,0,0,0,0,0,0,0,0,0,0,0,0,0,0,0,0,0,0,0,0,0,0,0,0,0,0,0,-3.4787,-3.4788,0,-3.4805,-3.4805,-3.4805,-3.4667,-3.4663,-3.4659,-3.4656,-3.4681,-3.4685,-3.4689,0,0,0,0,0,0,0,0,0,0,0,0,0,-3.4642,-3.4646,-3.4787,-3.4788,-3.4788,-3.4805,-3.4805,-3.4805,-3.4668,-3.4663,-3.4658,-3.4654,-3.468,-3.4685,-3.469,0,0,0,0,0,0,0,0,0,0,0,0,0,-3.4688,-3.4647,-3.4787,-3.4721,-3.4715,-3.4805,-3.4805,-3.4805,-3.4669,-3.4663,-3.4657,-3.4652,-3.4678,-3.4684,-3.4691,-3.4847,0,0,-3.471,-3.4713,0,0,0,0,0,0,0,0,-3.4685,-3.4693,-3.4731,-3.4726,-3.4719,-3.4728,-3.4763,-3.482,-3.467,-3.4687,-3.4656,-3.4649,-3.4702,-3.4706,-3.4722,-3.4848,-3.4849,-3.4711,-3.4715,-3.4717,-3.4719,0,0,0,0,0,0,0,-3.4682,-3.4692,-3.4794,-3.4731,-3.4725,-3.4693,-3.4693,-3.4773,-3.4727,-3.4685,-3.4675,-3.4678,-3.4698,-3.4716,-3.4722,-3.4849,-3.4711,-3.4716,-3.472,-3.4723,-3.5107,-3.5113,0,0,0,0,0,0,-3.4687,-3.469,-3.4794,-3.4795,-3.4687,-3.47,-3.47,-3.4731,-3.4726,-3.4719,-3.4683,-3.4672,-3.4708,-3.4714,-3.4722,-3.4907,-3.4717,-3.4723,-3.4727,-3.5101,-3.5108,-3.5115,0,0,0,0,0,0,-3.4684,-3.4698,-3.4793,-3.474,-3.4749,-3.4709,-3.4745,-3.4735,-3.4753,-3.4724,-3.4716,-3.4711,-3.4704,-3.4713,-3.4817,-3.4906,-3.4726,-3.4732,-3.5093,-3.5103,-3.5112,-3.5276,0,0,0,0,0,0,-3.4681,-3.4697,-3.4755,-3.4742,-3.4753,-3.4886,-3.475,-3.4739,-3.4764,-3.4749,-3.4748,-3.4742,-3.47,-3.4808,-3.4823,-3.4911,-3.4737,-3.5085,-3.5098,-3.5109,-3.5263,-3.529,-3.5314,0,0,0,0,0,-3.4676,-3.4801,-3.4758,-3.4772,-3.4823,-3.4891,-3.4898,-3.4845,-3.4771,-3.483,-3.4812,-3.4742,-3.4893,-3.482,-3.4836,-3.4927,-3.5079,-3.5094,-3.5108,-3.5251,-3.5285,-3.5313,0,0,0,0,0,0,-3.4828,-3.4798,-3.475,-3.4874,-3.4886,-3.4868,-3.494,-3.4881,-3.4916,-3.4901,-3.4836,-3.4837,-3.4953,-3.495,-3.4869,-3.5079,-3.4974,-3.4992,-3.5077,-3.5109,-3.5134,-3.5133,-3.4743,0,0,0,0,0,-3.4875,-3.493,-3.4902,-3.5015,-3.5023,-3.4981,-3.5009,-3.4967,-3.4977,-3.4982,-3.4971,-3.4987,-3.5037,-3.5072,-3.5117,-3.5261,-3.5261,-3.5332,-3.5357,-3.5378,-3.5396,-3.5474,-3.5506,-3.5162,-3.5162,-3.5162,0,0,-3.4974,-3.4965,-3.5005,-3.5045,-3.5049,-3.5111,-3.4986,-3.5056,-3.5102,-3.4993,-3.5091,-3.5084,-3.5097,-3.5222,-3.5276,-3.5223,-3.549,-3.5396,-3.5413,-3.5419,-3.5492,-3.5525,-3.5554,-3.5172,-3.517,-3.5169,0,0,-3.5187,-3.5185,-3.5279,-3.5285,-3.5293,-3.5264,-3.5287,-3.5277,-3.5268,-3.5364,-3.5284,-3.5339,-3.5428,-3.544,-3.5459,-3.5678,-3.5617,-3.5695,-3.5829,-3.5906,-3.5933,-3.5957,-3.6038,-3.6067,-3.5711,-3.5712,-3.5712,0,-3.5311,-3.5398,-3.5335,-3.5411,-3.5433,-3.5335,-3.5432,-3.5442,-3.5465,-3.5484,-3.5422,-3.5532,-3.5534,-3.5662,-3.5715,-3.5732,-3.5759,-3.5695,-3.5934,-3.5957,-3.5978,-3.6055,-3.6085,-3.5721,-3.572,-3.5719,-3.5718,0,-3.5551,-3.5613,-3.5688,-3.5711,-3.5741,-3.5827,-3.5781,-3.5819,-3.5775,-3.5753,-3.5854,-3.5852,-3.5896,-3.5923,-3.5881,-3.6046,-3.6013,-3.5944,-3.5837,-3.6022,-3.6093,-3.6122,-3.5735,-3.5732,-3.5729,-3.5727,0,0,-3.586,-3.5847,-3.5876,-3.5886,-3.5888,-3.5936,-3.6019,-3.6059,-3.6095,-3.6114,-3.6185,-3.6262,-3.6198,-3.6219,-3.6178,-3.6245,-3.6423,-3.6168,-3.6167,-3.6218,-3.6608,-3.6662,-3.6697,-3.6381,-3.6386,-3.639,-3.6608,0,-3.607,-3.6208,-3.6155,-3.63,-3.6358,-3.6266,-3.6339,-3.6349,-3.6332,-3.6381,-3.6362,-3.6419,-3.6329,-3.6341,-3.6404,-3.6388,-3.6501,-3.6371,-3.6449,-3.6452,-3.6451,-3.6733,-3.679,-3.6996,-3.6635,-3.664,-3.6643,0,-3.6333,-3.6362,-3.6511,-3.6504,-3.6526,-3.6592,-3.6627,-3.6673,-3.6684,-3.6667,-3.6691,-3.6636,-3.6719,-3.6611,-3.6727,-3.6641,-3.6669,-3.6667,-3.6673,-3.6681,-3.6561,-3.6751,-3.706,-3.7092,-3.6686,-3.6682,-3.6679,0,-3.6548,-3.6624,-3.6723,-3.6734,-3.6727,-3.6776,-3.6776,-3.6781,-3.681,-3.684,-3.6859,-3.69,-3.6924,-3.6958,-3.6916,-3.684,-3.704,-3.6927,-3.7031,-3.7033,-3.708,-3.7078,-3.74,-3.7094,-3.7093,-3.7093,-3.7092,0,-3.6789,-3.6885,-3.682,-3.6882,-3.6987,-3.6926,-3.7033,-3.7023,-3.7028,-3.7089,-3.7012,-3.7071,-3.7011,-3.7065,-3.7033,-3.7136,-3.7147,-3.7138,-3.7129,-3.7146,-3.7148,-3.7166,-3.7152,-3.7101,-3.7099,-3.7098,-3.7096,0,-3.7047,-3.7007,-3.711,-3.7095,-3.7093,-3.7172,-3.716,-3.7219,-3.7195,-3.7273,-3.7288,-3.7253,-3.7313,-3.7273,-3.7334,-3.7313,-3.7449,-3.7419,-3.7445,-3.7438,-3.7545,-3.7537,-3.7893,-3.7937,-3.76,-3.7603,-3.7606,0,-3.7205,-3.7277,-3.7269,-3.7303,-3.7307,-3.7363,-3.7391,-3.7334,-3.7368,-3.7387,-3.7444,-3.7496,-3.7536,-3.7637,-3.7618,-3.7665,-3.7637,-3.7759,-3.7644,-3.7661,-3.7643,-3.764,-3.7649,-3.7783,-3.7787,-3.779,-3.7793,0,-3.7491,-3.7467,-3.751,-3.7547,-3.7583,-3.761,-3.7631,-3.7664,-3.7607,-3.7649,-3.7708,-3.7739,-3.78,-3.7855,-3.7895,-3.7897,-3.7838,-3.7829,-3.7856,-3.7876,-3.7889,-3.7887,-3.7511,-3.7821,-3.7819,-3.7816,-3.7815,-3.7814,-3.7706,-3.7766,-3.777,-3.7821,-3.783,-3.7852,-3.7906,-3.7889,-3.7937,-3.7982,-3.7945,-3.8018,-3.8029,-3.8075,-3.8086,-3.8143,-3.8094,-3.8133,-3.8143,-3.8154,-3.817,-3.7878,-3.815,-3.8149,-3.8148,-3.8147,-3.8147,0,-3.799,-3.7988,-3.8035,-3.8066,-3.8107,-3.8044,-3.8064,-3.8104,-3.8167,-3.8181,-3.8221,-3.8291,-3.8344,-3.833,-3.8378,-3.8427,-3.8402,-3.8442,-3.844,-3.8442,-3.821,-3.8183,-3.8463,-3.8463,-3.8463,-3.8463,-3.8463,-3.8462,-3.8142,-3.8242,-3.8219,-3.8323,-3.8321,-3.8389,-3.8407,-3.8427,-3.8438,-3.8519,-3.8562,-3.8551,-3.8555,-3.8603,-3.8651,-3.8645,-3.8668,-3.872,-3.8705,-3.8489,-3.8458,-3.8428,-3.8403,-3.8725,-3.8725,-3.8933,-3.8935,-3.8937]},{"header":{"parameterUnit":"m.s-1","parameterCategory":1,"la1":30.2991,"la2":30.254,"lo1":-89.0895,"lo2":-89.0444,"dy":0.0017,"dx":0.0017,"nx":28,"ny":28,"refTime":"2024-12-23T03:00:00:Z","depth":0,"parameterNumber":3,"parameterNumberName":"V-component_of_WINDS"},"data":[0,0,0,0,0,0,0,0,0,0,0,0,0,0,0,0,0,0,0,0,0,0,0,0,0,0,0,0,0,0,0,0,0,0,0,0,0,0,0,0,0,0,0,0,0,0,0,0,0,0,0,0,0,0,0,0,0,0,-0.8835,-0.8835,0,-0.8856,-0.8856,-0.8856,-0.883,-0.8829,-0.8828,-0.8827,-0.8849,-0.885,-0.8852,0,0,0,0,0,0,0,0,0,0,0,0,0,-0.8773,-0.8774,-0.8835,-0.8835,-0.8836,-0.8856,-0.8856,-0.8856,-0.883,-0.8829,-0.8828,-0.8827,-0.8848,-0.885,-0.8852,0,0,0,0,0,0,0,0,0,0,0,0,0,-0.8797,-0.8774,-0.8835,-0.8825,-0.8824,-0.8856,-0.8856,-0.8856,-0.8831,-0.8829,-0.8828,-0.8826,-0.8848,-0.885,-0.8852,-0.8894,0,0,-0.8859,-0.886,0,0,0,0,0,0,0,0,-0.8796,-0.88,-0.8826,-0.8826,-0.8825,-0.8839,-0.8842,-0.8869,-0.8831,-0.8828,-0.8827,-0.8826,-0.8847,-0.8849,-0.8856,-0.8895,-0.8896,-0.8859,-0.886,-0.8861,-0.8862,0,0,0,0,0,0,0,-0.8794,-0.8799,-0.8843,-0.8827,-0.8826,-0.8819,-0.8821,-0.8847,-0.8845,-0.8828,-0.8827,-0.8829,-0.8846,-0.8854,-0.8856,-0.8897,-0.8859,-0.8861,-0.8862,-0.8863,-0.8971,-0.8973,0,0,0,0,0,0,-0.8794,-0.8797,-0.8843,-0.8844,-0.8807,-0.8822,-0.8824,-0.8836,-0.8845,-0.8845,-0.8831,-0.8828,-0.8851,-0.8854,-0.8857,-0.8908,-0.8861,-0.8863,-0.8865,-0.897,-0.8972,-0.8973,0,0,0,0,0,0,-0.8793,-0.8798,-0.8842,-0.882,-0.8825,-0.8824,-0.8838,-0.8837,-0.8845,-0.8847,-0.8846,-0.8839,-0.885,-0.8854,-0.8885,-0.8908,-0.8864,-0.8866,-0.8968,-0.897,-0.8973,-0.9009,0,0,0,0,0,0,-0.8791,-0.8798,-0.8814,-0.8821,-0.8826,-0.887,-0.884,-0.8839,-0.8849,-0.8846,-0.8854,-0.8854,-0.8849,-0.8882,-0.8887,-0.891,-0.8868,-0.8966,-0.8969,-0.8972,-0.9006,-0.9012,-0.9017,0,0,0,0,0,-0.8789,-0.8824,-0.8815,-0.8821,-0.8847,-0.8872,-0.8875,-0.8868,-0.8851,-0.8867,-0.8868,-0.8854,-0.8904,-0.8886,-0.8891,-0.8915,-0.8965,-0.8968,-0.8972,-0.9003,-0.9011,-0.9017,0,0,0,0,0,0,-0.882,-0.8824,-0.8815,-0.8853,-0.8862,-0.8867,-0.8888,-0.8876,-0.8891,-0.8887,-0.8878,-0.888,-0.8914,-0.8917,-0.8896,-0.8956,-0.8931,-0.8936,-0.8953,-0.8961,-0.8967,-0.8966,-0.887,0,0,0,0,0,-0.8831,-0.8851,-0.8854,-0.8887,-0.8892,-0.8889,-0.8899,-0.8893,-0.8902,-0.8906,-0.8909,-0.8918,-0.8936,-0.8948,-0.8965,-0.9005,-0.9007,-0.9024,-0.903,-0.9035,-0.904,-0.9062,-0.9069,-0.8985,-0.8985,-0.8985,0,0,-0.8855,-0.886,-0.8873,-0.8893,-0.89,-0.892,-0.8892,-0.8915,-0.8931,-0.8909,-0.894,-0.8942,-0.8952,-0.8988,-0.9004,-0.8992,-0.9063,-0.9039,-0.9043,-0.9046,-0.9066,-0.9074,-0.9081,-0.8987,-0.8987,-0.8987,0,0,-0.891,-0.8915,-0.8943,-0.895,-0.8959,-0.8957,-0.8964,-0.897,-0.8971,-0.9,-0.8985,-0.9002,-0.9033,-0.9041,-0.9049,-0.9104,-0.9092,-0.9109,-0.9142,-0.9163,-0.917,-0.9175,-0.9196,-0.9204,-0.9114,-0.9114,-0.9114,0,-0.8938,-0.8969,-0.8959,-0.8984,-0.8993,-0.8973,-0.9002,-0.9009,-0.9024,-0.9031,-0.9016,-0.9054,-0.9059,-0.9097,-0.911,-0.9117,-0.9125,-0.911,-0.9169,-0.9175,-0.918,-0.92,-0.9208,-0.9116,-0.9116,-0.9116,-0.9115,0,-0.9004,-0.9025,-0.9047,-0.9061,-0.9073,-0.9099,-0.9093,-0.9106,-0.9098,-0.9097,-0.9127,-0.9132,-0.9149,-0.9157,-0.915,-0.9194,-0.9186,-0.9171,-0.9146,-0.9191,-0.9209,-0.9217,-0.9119,-0.9118,-0.9118,-0.9117,0,0,-0.9081,-0.9088,-0.9097,-0.9103,-0.9111,-0.9127,-0.9152,-0.9169,-0.918,-0.919,-0.9211,-0.9237,-0.9222,-0.9231,-0.9224,-0.9242,-0.9287,-0.9225,-0.9225,-0.9237,-0.9336,-0.9349,-0.9358,-0.9278,-0.9279,-0.928,-0.9336,0,-0.9136,-0.918,-0.9171,-0.9214,-0.9234,-0.9214,-0.9236,-0.9243,-0.9243,-0.9259,-0.9257,-0.9276,-0.9255,-0.926,-0.9278,-0.9278,-0.9307,-0.9273,-0.9298,-0.9299,-0.9299,-0.9368,-0.9382,-0.9434,-0.9343,-0.9344,-0.9345,0,-0.9207,-0.922,-0.9264,-0.9269,-0.9277,-0.9297,-0.9311,-0.9326,-0.9334,-0.9332,-0.9341,-0.933,-0.9355,-0.9328,-0.9362,-0.9339,-0.9349,-0.935,-0.9352,-0.9355,-0.9326,-0.9375,-0.9451,-0.9459,-0.9356,-0.9355,-0.9354,0,-0.9261,-0.9288,-0.9318,-0.9324,-0.933,-0.9344,-0.9347,-0.9353,-0.9363,-0.9375,-0.9382,-0.9396,-0.9405,-0.9416,-0.941,-0.9391,-0.9445,-0.9418,-0.9445,-0.9445,-0.9459,-0.9459,-0.9539,-0.9462,-0.9462,-0.9462,-0.9461,0,-0.9324,-0.9353,-0.9343,-0.9362,-0.9392,-0.9381,-0.9412,-0.9413,-0.9418,-0.9437,-0.942,-0.9438,-0.9427,-0.9444,-0.9439,-0.9468,-0.9471,-0.9471,-0.947,-0.9474,-0.9474,-0.9481,-0.9478,-0.9464,-0.9463,-0.9463,-0.9462,0,-0.939,-0.9384,-0.9416,-0.9419,-0.942,-0.9443,-0.9445,-0.9462,-0.9459,-0.9483,-0.9488,-0.9483,-0.9502,-0.9496,-0.9516,-0.9512,-0.955,-0.9543,-0.9548,-0.9547,-0.9575,-0.9573,-0.9664,-0.9676,-0.959,-0.9591,-0.9591,0,-0.9433,-0.9454,-0.9458,-0.9469,-0.9473,-0.9492,-0.9502,-0.9491,-0.9502,-0.9512,-0.9528,-0.9545,-0.9559,-0.9589,-0.9588,-0.9603,-0.9598,-0.9628,-0.96,-0.9603,-0.96,-0.96,-0.9602,-0.9635,-0.9636,-0.9637,-0.9637,0,-0.9508,-0.9504,-0.9519,-0.9533,-0.9545,-0.9556,-0.9565,-0.9575,-0.9565,-0.9578,-0.9597,-0.9607,-0.9627,-0.9645,-0.9658,-0.9661,-0.9648,-0.9646,-0.9653,-0.9659,-0.9661,-0.9662,-0.9565,-0.9645,-0.9644,-0.9643,-0.9643,-0.9643,-0.9565,-0.9583,-0.9588,-0.9606,-0.9611,-0.962,-0.9636,-0.9635,-0.965,-0.9666,-0.9658,-0.968,-0.9686,-0.9703,-0.9707,-0.9725,-0.9713,-0.9723,-0.9726,-0.9729,-0.9734,-0.9657,-0.9727,-0.9726,-0.9726,-0.9726,-0.9726,0,-0.9641,-0.9643,-0.9659,-0.9672,-0.9685,-0.967,-0.9679,-0.9691,-0.9711,-0.9717,-0.9731,-0.9752,-0.9769,-0.9768,-0.9783,-0.9797,-0.9791,-0.9802,-0.9802,-0.9803,-0.9743,-0.9735,-0.9806,-0.9806,-0.9806,-0.9806,-0.9806,-0.9806,-0.9682,-0.9712,-0.9708,-0.974,-0.9742,-0.9764,-0.977,-0.9778,-0.9783,-0.9808,-0.9821,-0.982,-0.9824,-0.9839,-0.9854,-0.9853,-0.986,-0.9873,-0.987,-0.9815,-0.9807,-0.9799,-0.9793,-0.9874,-0.9874,-0.9929,-0.9929,-0.993]}]]